TimeCEST,TemperatureF,Dew PointF,Humidity,Sea Level PressureIn,VisibilityMPH,Wind Direction,Wind SpeedMPH,Gust SpeedMPH,PrecipitationIn,Events,Conditions,WindDirDegrees,DateUTC
12:00 AM,42,37,76,30.06,19,NW,8.9,,,,Partly Cloudy,320,2014-04-15 22:00:00
12:00 AM,41.0,37.4,87,30.04,6.2,NNW,9.2,-,N/A,,Scattered Clouds,330,2014-04-15 22:00:00
12:30 AM,39.2,37.4,93,30.04,-9999.0,NNW,6.9,-,N/A,,Clear,330,2014-04-15 22:30:00
1:00 AM,41,38,83,30.08,19,NW,8.9,,,,Partly Cloudy,320,2014-04-15 23:00:00
1:00 AM,41.0,37.4,87,30.06,6.2,NNW,11.5,-,N/A,,Scattered Clouds,330,2014-04-15 23:00:00
1:30 AM,41.0,37.4,87,30.06,6.2,NNW,11.5,-,N/A,,Mostly Cloudy,330,2014-04-15 23:30:00
2:00 AM,40,37,87,30.10,19,NNW,8.9,,,,Partly Cloudy,330,2014-04-16 00:00:00
2:00 AM,39.2,37.4,93,30.06,6.2,NNW,9.2,-,N/A,,Mostly Cloudy,340,2014-04-16 00:00:00
2:30 AM,39.2,37.4,93,30.09,6.2,North,12.7,-,N/A,,Mostly Cloudy,350,2014-04-16 00:30:00
3:00 AM,39,36,84,30.12,19,NNW,13.4,,,,Mostly Cloudy,340,2014-04-16 01:00:00
3:00 AM,39.2,35.6,87,30.09,6.2,North,11.5,-,N/A,,Mostly Cloudy,350,2014-04-16 01:00:00
3:30 AM,39.2,35.6,87,30.09,6.2,NNW,10.4,-,N/A,,Mostly Cloudy,340,2014-04-16 01:30:00
4:00 AM,39,36,85,30.14,19,NW,8.9,,,,Mostly Cloudy,320,2014-04-16 02:00:00
4:00 AM,39.2,37.4,93,30.09,6.2,NNW,10.4,-,N/A,,Mostly Cloudy,330,2014-04-16 02:00:00
4:30 AM,39.2,37.4,93,30.12,6.2,NNW,10.4,-,N/A,,Mostly Cloudy,330,2014-04-16 02:30:00
5:00 AM,39,37,88,30.16,19,NNW,11.2,,,,Mostly Cloudy,340,2014-04-16 03:00:00
5:00 AM,39.2,37.4,93,30.12,6.2,North,9.2,-,N/A,,Mostly Cloudy,350,2014-04-16 03:00:00
5:30 AM,39.2,37.4,93,30.15,6.2,North,8.1,-,N/A,,Mostly Cloudy,350,2014-04-16 03:30:00
6:00 AM,40,36,80,30.19,19,North,15.7,,,,Mostly Cloudy,350,2014-04-16 04:00:00
6:00 AM,39.2,35.6,87,30.15,6.2,North,13.8,-,N/A,,Mostly Cloudy,360,2014-04-16 04:00:00
6:30 AM,39.2,35.6,87,30.18,6.2,North,11.5,-,N/A,,Mostly Cloudy,350,2014-04-16 04:30:00
7:00 AM,40,36,80,30.21,12,NNW,11.2,,,,Mostly Cloudy,340,2014-04-16 05:00:00
7:00 AM,39.2,35.6,87,30.18,6.2,North,10.4,-,N/A,,Mostly Cloudy,350,2014-04-16 05:00:00
7:30 AM,39.2,37.4,93,30.18,6.2,North,10.4,-,N/A,,Mostly Cloudy,350,2014-04-16 05:30:00
8:00 AM,40,36,82,30.23,12,NNW,11.2,,,Rain,Light Rain Showers,340,2014-04-16 06:00:00
8:00 AM,39.2,37.4,93,30.21,6.2,North,10.4,-,N/A,,Scattered Clouds,350,2014-04-16 06:00:00
8:30 AM,39.2,37.4,93,30.21,6.2,North,8.1,-,N/A,,Mostly Cloudy,350,2014-04-16 06:30:00
9:00 AM,41,36,76,30.26,12,North,11.2,,,,Mostly Cloudy,350,2014-04-16 07:00:00
9:00 AM,41.0,35.6,81,30.21,6.2,North,11.5,-,N/A,,Mostly Cloudy,350,2014-04-16 07:00:00
9:30 AM,41.0,35.6,81,30.24,6.2,North,11.5,-,N/A,,Mostly Cloudy,350,2014-04-16 07:30:00
10:00 AM,41,37,79,30.28,12,NNW,13.4,,,,Mostly Cloudy,340,2014-04-16 08:00:00
10:00 AM,41.0,37.4,87,30.24,6.2,North,9.2,-,N/A,,Mostly Cloudy,350,2014-04-16 08:00:00
10:30 AM,39.2,35.6,87,30.24,6.2,NNW,11.5,-,N/A,,Mostly Cloudy,340,2014-04-16 08:30:00
11:00 AM,41,35,73,30.29,12,NW,13.4,,,,Mostly Cloudy,320,2014-04-16 09:00:00
11:00 AM,41.0,35.6,81,30.27,6.2,North,10.4,-,N/A,,Mostly Cloudy,350,2014-04-16 09:00:00
11:30 AM,41.0,35.6,81,30.27,6.2,North,11.5,-,N/A,,Mostly Cloudy,350,2014-04-16 09:30:00
12:00 PM,44,36,63,30.30,12,NNW,11.2,,,,Mostly Cloudy,340,2014-04-16 10:00:00
12:00 PM,44.6,35.6,71,30.27,6.2,NNW,11.5,-,N/A,,Mostly Cloudy,340,2014-04-16 10:00:00
12:30 PM,44.6,35.6,71,30.27,6.2,North,9.2,-,N/A,,Mostly Cloudy,360,2014-04-16 10:30:00
1:00 PM,46,36,57,30.30,12,North,11.2,,,,Mostly Cloudy,350,2014-04-16 11:00:00
1:00 PM,44.6,35.6,71,30.27,6.2,NNW,9.2,-,N/A,,Mostly Cloudy,334,2014-04-16 11:00:00
1:30 PM,46.4,35.6,66,30.27,6.2,NNW,10.4,-,N/A,,Mostly Cloudy,340,2014-04-16 11:30:00
2:00 PM,47,35,52,30.30,12,North,8.9,,,,Mostly Cloudy,350,2014-04-16 12:00:00
2:00 PM,46.4,35.6,66,30.27,6.2,North,8.1,-,N/A,,Scattered Clouds,350,2014-04-16 12:00:00
2:30 PM,48.2,35.6,62,30.27,6.2,North,6.9,-,N/A,,Partly Cloudy,350,2014-04-16 12:30:00
3:00 PM,49,35,46,30.30,12,NNW,8.9,,,,Mostly Cloudy,330,2014-04-16 13:00:00
3:00 PM,48.2,33.8,58,30.27,6.2,North,6.9,-,N/A,,Scattered Clouds,350,2014-04-16 13:00:00
3:30 PM,46.4,35.6,66,30.27,6.2,North,11.5,-,N/A,,Scattered Clouds,360,2014-04-16 13:30:00
4:00 PM,46,37,62,30.31,12,NW,8.9,,,,Mostly Cloudy,320,2014-04-16 14:00:00
4:00 PM,46.4,37.4,71,30.30,6.2,NNW,9.2,-,N/A,,Scattered Clouds,330,2014-04-16 14:00:00
4:30 PM,46.4,35.6,66,30.30,6.2,North,11.5,-,N/A,,Scattered Clouds,360,2014-04-16 14:30:00
5:00 PM,48,36,53,30.32,12,North,8.9,,,Rain,Light Rain Showers,0,2014-04-16 15:00:00
5:00 PM,48.2,35.6,62,30.30,6.2,North,9.2,-,N/A,,Partly Cloudy,350,2014-04-16 15:00:00
5:30 PM,48.2,35.6,62,30.30,6.2,North,9.2,-,N/A,,Partly Cloudy,360,2014-04-16 15:30:00
6:00 PM,48,35,49,30.32,12,NNE,6.7,,,,Mostly Cloudy,20,2014-04-16 16:00:00
6:00 PM,48.2,33.8,58,30.30,6.2,North,10.4,-,N/A,,Partly Cloudy,10,2014-04-16 16:00:00
6:30 PM,46.4,35.6,66,30.30,6.2,North,9.2,-,N/A,,Partly Cloudy,360,2014-04-16 16:30:00
7:00 PM,46,35,56,30.33,12,North,8.9,,,,Scattered Clouds,350,2014-04-16 17:00:00
7:00 PM,46.4,35.6,66,30.30,6.2,North,9.2,-,N/A,,Partly Cloudy,360,2014-04-16 17:00:00
7:30 PM,46.4,33.8,62,30.30,6.2,North,9.2,-,N/A,,Partly Cloudy,10,2014-04-16 17:30:00
8:00 PM,46,34,52,30.35,12,North,8.9,,,,Partly Cloudy,10,2014-04-16 18:00:00
8:00 PM,44.6,33.8,66,30.33,-9999.0,North,8.1,-,N/A,,Clear,10,2014-04-16 18:00:00
8:30 PM,44.6,32.0,61,30.33,-9999.0,North,8.1,-,N/A,,Clear,10,2014-04-16 18:30:00
9:00 PM,44,32,52,30.36,19,North,6.7,,,,Scattered Clouds,10,2014-04-16 19:00:00
9:00 PM,42.8,32.0,66,30.33,-9999.0,North,5.8,-,N/A,,Clear,10,2014-04-16 19:00:00
9:30 PM,41.0,32.0,70,30.33,-9999.0,North,6.9,-,N/A,,Clear,10,2014-04-16 19:30:00
10:00 PM,40,31,61,30.37,19,NNE,6.7,,,,,20,2014-04-16 20:00:00
10:00 PM,39.2,32.0,75,30.33,-9999.0,NNE,5.8,-,N/A,,Clear,20,2014-04-16 20:00:00
10:30 PM,39.2,30.2,70,30.33,-9999.0,North,5.8,-,N/A,,Clear,10,2014-04-16 20:30:00
11:00 PM,40,31,62,30.38,19,NNW,4.5,,,,,330,2014-04-16 21:00:00
11:00 PM,39.2,32.0,75,30.33,-9999.0,North,5.8,-,N/A,,Clear,360,2014-04-16 21:00:00
11:30 PM,39.2,32.0,75,30.33,-9999.0,North,4.6,-,N/A,,Clear,350,2014-04-16 21:30:00